EWG9MB EDLW-EDDN

Flight info

Callsign EWG9MB
Flight time 0h 38m
Altitude 21000
Route GMH8Q/06 GMH DCT ARPEG Z52 OHMAR DCT KERAX DCT RITUP Z723 KOMIB T193 ERTES T194 DODAS DODAS1V
Aircraft A320/M-SDE3FGHIRWY/LB1

Departure

Time 2026-05-06 14:51
Airport Dortmund Airport (EDLW)

Arrival

Time 2026-05-06 15:30
Airport Nuremberg Airport (EDDN)
Time Latitude Longitude Altitude Speed Heading
2026-05-06 14:25 51.51589 7.61281 434 ft 0 kts 332°
2026-05-06 14:46 51.51591 7.61278 427 ft 3 kts 332°
2026-05-06 14:46 51.51612 7.61261 421 ft 2 kts 331°
2026-05-06 14:46 51.51630 7.61238 434 ft 3 kts 307°
2026-05-06 14:47 51.51629 7.61203 433 ft 5 kts 258°
2026-05-06 14:47 51.51614 7.61144 427 ft 4 kts 242°
2026-05-06 14:47 51.51605 7.61119 421 ft 0 kts 242°
2026-05-06 14:47 51.51598 7.61095 420 ft 10 kts 245°
2026-05-06 14:48 51.51557 7.60960 423 ft 12 kts 241°
2026-05-06 14:48 51.51518 7.60844 413 ft 12 kts 241°
2026-05-06 14:48 51.51478 7.60731 415 ft 11 kts 240°
2026-05-06 14:48 51.51453 7.60660 416 ft 4 kts 240°
2026-05-06 14:49 51.51444 7.60633 418 ft 6 kts 240°
2026-05-06 14:49 51.51412 7.60543 418 ft 12 kts 240°
2026-05-06 14:49 51.51362 7.60394 416 ft 15 kts 250°
2026-05-06 14:49 51.51401 7.60273 416 ft 14 kts 328°
2026-05-06 14:50 51.51474 7.60220 413 ft 9 kts
2026-05-06 14:50 51.51498 7.60271 413 ft 0 kts 59°
2026-05-06 14:50 51.51498 7.60272 413 ft 0 kts 59°
2026-05-06 14:51 51.51594 7.60544 413 ft 68 kts 60°
2026-05-06 14:51 51.51943 7.61531 414 ft 133 kts 60°
2026-05-06 14:51 51.52481 7.63003 740 ft 158 kts 56°
2026-05-06 14:51 51.53003 7.64528 1623 ft 153 kts 60°
2026-05-06 14:52 51.53476 7.66006 2409 ft 147 kts 59°
2026-05-06 14:52 51.53991 7.67560 2752 ft 168 kts 58°
2026-05-06 14:52 51.54597 7.69254 3065 ft 183 kts 57°
2026-05-06 14:52 51.55269 7.71099 3307 ft 199 kts 57°
2026-05-06 14:53 51.55950 7.73087 3515 ft 214 kts 66°
2026-05-06 14:53 51.55947 7.75539 3643 ft 238 kts 112°
2026-05-06 14:53 51.54787 7.77561 3778 ft 261 kts 149°
2026-05-06 14:53 51.53056 7.78621 3995 ft 272 kts 172°
2026-05-06 14:54 51.51171 7.78690 4058 ft 271 kts 188°
2026-05-06 14:54 51.49350 7.77993 3991 ft 268 kts 202°
2026-05-06 14:54 51.47613 7.76882 3952 ft 268 kts 202°
2026-05-06 14:54 51.45858 7.75851 3964 ft 271 kts 201°
2026-05-06 14:55 51.44029 7.75139 4584 ft 271 kts 185°
2026-05-06 14:55 51.42148 7.75309 5217 ft 271 kts 170°
2026-05-06 14:55 51.40333 7.76105 5860 ft 270 kts 163°
2026-05-06 14:55 51.38555 7.77075 6440 ft 271 kts 163°
2026-05-06 14:56 51.36765 7.78082 6944 ft 274 kts 162°
2026-05-06 14:56 51.34971 7.79127 7459 ft 275 kts 162°
2026-05-06 14:56 51.33174 7.80198 7988 ft 276 kts 162°
2026-05-06 14:56 51.31371 7.81264 8523 ft 277 kts 163°
2026-05-06 14:57 51.29544 7.82266 9245 ft 282 kts 165°
2026-05-06 14:57 51.27688 7.83268 10183 ft 284 kts 165°
2026-05-06 14:57 51.25742 7.84321 10457 ft 307 kts 164°
2026-05-06 14:57 51.23665 7.85462 10948 ft 321 kts 164°
2026-05-06 14:58 51.21528 7.86659 11714 ft 328 kts 163°
2026-05-06 14:58 51.19378 7.88020 12483 ft 336 kts 156°
2026-05-06 14:58 51.17417 7.90092 13226 ft 345 kts 143°
2026-05-06 14:58 51.15752 7.92893 13900 ft 353 kts 129°
2026-05-06 14:59 51.14437 7.96242 14546 ft 359 kts 123°
2026-05-06 14:59 51.13170 7.99689 15203 ft 362 kts 123°
2026-05-06 14:59 51.11893 8.03158 15879 ft 365 kts 123°
2026-05-06 14:59 51.10602 8.06655 16537 ft 368 kts 123°
2026-05-06 15:00 51.09299 8.10175 17194 ft 371 kts 124°
2026-05-06 15:00 51.07978 8.13728 17865 ft 374 kts 124°
2026-05-06 15:00 51.06645 8.17294 18446 ft 377 kts 124°
2026-05-06 15:00 51.05298 8.20891 19001 ft 380 kts 124°
2026-05-06 15:01 51.03941 8.24517 19538 ft 383 kts 124°
2026-05-06 15:01 51.02569 8.28181 20062 ft 387 kts 124°
2026-05-06 15:01 51.01192 8.31883 20574 ft 391 kts 123°
2026-05-06 15:01 50.99865 8.35684 20752 ft 394 kts 121°
2026-05-06 15:02 50.98623 8.39478 20789 ft 380 kts 120°
2026-05-06 15:02 50.97445 8.43194 20790 ft 375 kts 120°
2026-05-06 15:02 50.96279 8.46879 20791 ft 373 kts 120°
2026-05-06 15:02 50.95101 8.50548 20792 ft 373 kts 121°
2026-05-06 15:03 50.93914 8.54198 20791 ft 372 kts 121°
2026-05-06 15:03 50.92718 8.57832 20792 ft 372 kts 121°
2026-05-06 15:03 50.91513 8.61463 20796 ft 372 kts 121°
2026-05-06 15:03 50.90320 8.65043 20779 ft 372 kts 121°
2026-05-06 15:04 50.89113 8.68663 20773 ft 372 kts 121°
2026-05-06 15:04 50.87909 8.72284 20774 ft 372 kts 121°
2026-05-06 15:04 50.86704 8.75907 20773 ft 372 kts 121°
2026-05-06 15:04 50.85495 8.79537 20774 ft 372 kts 121°
2026-05-06 15:05 50.84285 8.83157 20772 ft 371 kts 121°
2026-05-06 15:05 50.83077 8.86763 20769 ft 371 kts 122°
2026-05-06 15:05 50.81672 8.90163 20768 ft 367 kts 132°
2026-05-06 15:05 50.80091 8.93322 20765 ft 367 kts 132°
2026-05-06 15:06 50.78513 8.96488 20767 ft 367 kts 132°
2026-05-06 15:06 50.76937 8.99664 20768 ft 367 kts 132°
2026-05-06 15:06 50.75361 9.02840 20763 ft 367 kts 132°
2026-05-06 15:06 50.74320 9.04938 20763 ft 367 kts 132°
2026-05-06 15:07 50.72743 9.08111 20762 ft 367 kts 132°
2026-05-06 15:07 50.71161 9.11278 20770 ft 367 kts 132°
2026-05-06 15:07 50.69579 9.14441 20769 ft 367 kts 132°
2026-05-06 15:07 50.67997 9.17602 20763 ft 367 kts 132°
2026-05-06 15:08 50.66412 9.20762 20767 ft 367 kts 132°
2026-05-06 15:08 50.64831 9.23913 20772 ft 367 kts 132°
2026-05-06 15:08 50.63247 9.27068 20762 ft 367 kts 132°
2026-05-06 15:08 50.61665 9.30225 20765 ft 367 kts 132°
2026-05-06 15:09 50.60080 9.33373 20763 ft 367 kts 132°
2026-05-06 15:09 50.58490 9.36519 20773 ft 366 kts 131°
2026-05-06 15:09 50.56903 9.39654 20764 ft 366 kts 132°
2026-05-06 15:09 50.55319 9.42782 20769 ft 366 kts 132°
2026-05-06 15:10 50.53755 9.45869 20782 ft 365 kts 132°
2026-05-06 15:10 50.52172 9.48997 20775 ft 365 kts 132°
2026-05-06 15:10 50.50589 9.52115 20774 ft 365 kts 132°
2026-05-06 15:10 50.49004 9.55232 20778 ft 365 kts 132°
2026-05-06 15:11 50.47401 9.58323 20758 ft 363 kts 135°
2026-05-06 15:11 50.45639 9.61151 20763 ft 362 kts 137°
2026-05-06 15:11 50.43862 9.63953 20767 ft 362 kts 137°
2026-05-06 15:11 50.42086 9.66749 20763 ft 361 kts 137°
2026-05-06 15:12 50.40310 9.69543 20764 ft 361 kts 137°
2026-05-06 15:12 50.38538 9.72329 20763 ft 361 kts 137°
2026-05-06 15:12 50.36763 9.75114 20767 ft 361 kts 137°
2026-05-06 15:12 50.34990 9.77891 20762 ft 361 kts 138°
2026-05-06 15:13 50.33215 9.80673 20760 ft 361 kts 137°
2026-05-06 15:13 50.31443 9.83454 20755 ft 361 kts 137°
2026-05-06 15:13 50.29695 9.86198 20713 ft 350 kts 137°
2026-05-06 15:13 50.28000 9.88854 20476 ft 344 kts 138°
2026-05-06 15:14 50.26302 9.91504 19975 ft 345 kts 138°
2026-05-06 15:14 50.24603 9.94152 19473 ft 346 kts 138°
2026-05-06 15:14 50.22899 9.96806 18986 ft 346 kts 138°
2026-05-06 15:14 50.21193 9.99460 18502 ft 346 kts 137°
2026-05-06 15:15 50.19484 10.02113 18025 ft 347 kts 137°
2026-05-06 15:15 50.17813 10.04828 17487 ft 347 kts 135°
2026-05-06 15:15 50.16240 10.07628 16964 ft 348 kts 133°
2026-05-06 15:15 50.14688 10.10531 16441 ft 348 kts 132°
2026-05-06 15:16 50.13148 10.13447 15915 ft 348 kts 132°
2026-05-06 15:16 50.11600 10.16367 15428 ft 349 kts 132°
2026-05-06 15:16 50.10046 10.19276 14912 ft 349 kts 132°
2026-05-06 15:16 50.08487 10.22170 14428 ft 349 kts 132°
2026-05-06 15:17 50.07076 10.25239 13929 ft 351 kts 121°
2026-05-06 15:17 50.06008 10.28635 13592 ft 347 kts 117°
2026-05-06 15:17 50.04988 10.31997 13335 ft 340 kts 117°
2026-05-06 15:17 50.03988 10.35284 13063 ft 333 kts 118°
2026-05-06 15:18 50.02999 10.38510 12802 ft 326 kts 117°
2026-05-06 15:18 50.01986 10.41629 12533 ft 319 kts 125°
2026-05-06 15:18 50.00544 10.44140 12275 ft 308 kts 144°
2026-05-06 15:18 49.98704 10.45719 12017 ft 298 kts 162°
2026-05-06 15:19 49.96764 10.46832 11756 ft 296 kts 162°
2026-05-06 15:19 49.94859 10.47918 11508 ft 295 kts 162°
2026-05-06 15:19 49.92936 10.49008 11259 ft 293 kts 162°
2026-05-06 15:19 49.91022 10.50089 10996 ft 292 kts 162°
2026-05-06 15:20 49.89123 10.51159 10746 ft 290 kts 162°
2026-05-06 15:20 49.87221 10.52232 10512 ft 289 kts 162°
2026-05-06 15:20 49.85333 10.53296 10263 ft 289 kts 162°
2026-05-06 15:20 49.83460 10.54349 10019 ft 284 kts 162°
2026-05-06 15:21 49.81605 10.55393 9796 ft 283 kts 162°
2026-05-06 15:21 49.79744 10.56439 9509 ft 284 kts 162°
2026-05-06 15:21 49.77892 10.57481 8902 ft 279 kts 162°
2026-05-06 15:21 49.76104 10.58489 8516 ft 268 kts 162°
2026-05-06 15:22 49.74384 10.59460 8156 ft 257 kts 162°
2026-05-06 15:22 49.72708 10.60400 7792 ft 258 kts 162°
2026-05-06 15:22 49.71026 10.61342 7426 ft 256 kts 162°
2026-05-06 15:22 49.69352 10.62280 7048 ft 255 kts 162°
2026-05-06 15:23 49.67681 10.63214 6675 ft 255 kts 162°
2026-05-06 15:23 49.66046 10.64126 6425 ft 251 kts 161°
2026-05-06 15:23 49.64400 10.65047 6163 ft 248 kts 161°
2026-05-06 15:23 49.62823 10.65931 6108 ft 235 kts 162°
2026-05-06 15:24 49.61304 10.66779 6036 ft 231 kts 162°
2026-05-06 15:24 49.59798 10.67618 5941 ft 230 kts 162°
2026-05-06 15:24 49.58292 10.68459 5833 ft 230 kts 162°
2026-05-06 15:24 49.56797 10.69293 5731 ft 227 kts 162°
2026-05-06 15:25 49.55323 10.70169 5584 ft 228 kts 154°
2026-05-06 15:25 49.54065 10.71656 5392 ft 230 kts 133°
2026-05-06 15:25 49.53239 10.73767 5146 ft 234 kts 110°
2026-05-06 15:25 49.52903 10.76260 4849 ft 243 kts 99°
2026-05-06 15:26 49.52661 10.78883 4521 ft 251 kts 99°
2026-05-06 15:26 49.52412 10.81553 4167 ft 250 kts 99°
2026-05-06 15:26 49.52170 10.84091 3844 ft 229 kts 99°
2026-05-06 15:26 49.51947 10.86406 3556 ft 214 kts 100°
2026-05-06 15:27 49.51732 10.88634 3280 ft 206 kts 99°
2026-05-06 15:27 49.51531 10.90722 3031 ft 188 kts 98°
2026-05-06 15:27 49.51347 10.92630 2788 ft 174 kts 99°
2026-05-06 15:27 49.51177 10.94388 2562 ft 159 kts 98°
2026-05-06 15:28 49.51016 10.96045 2350 ft 154 kts 99°
2026-05-06 15:28 49.50859 10.97655 2151 ft 150 kts 99°
2026-05-06 15:28 49.50707 10.99229 1953 ft 149 kts 98°
2026-05-06 15:28 49.50559 11.00801 1778 ft 148 kts 97°
2026-05-06 15:29 49.50406 11.02364 1533 ft 146 kts 97°
2026-05-06 15:29 49.50250 11.03910 1346 ft 146 kts 96°
2026-05-06 15:29 49.50095 11.05464 1118 ft 146 kts 95°
2026-05-06 15:29 49.49956 11.06948 1024 ft 125 kts 99°
2026-05-06 15:30 49.49851 11.08004 1030 ft 75 kts 99°
2026-05-06 15:30 49.49804 11.08476 1036 ft 18 kts 99°
2026-05-06 15:30 49.49717 11.08560 1036 ft 16 kts 196°
2026-05-06 15:30 49.49654 11.08468 1035 ft 0 kts 233°
2026-05-06 15:32 49.49574 11.08355 1032 ft 10 kts 191°
2026-05-06 15:32 49.49536 11.08278 1029 ft 11 kts 270°
2026-05-06 15:32 49.49548 11.08150 1024 ft 13 kts 278°
2026-05-06 15:32 49.49562 11.08005 1026 ft 13 kts 277°
2026-05-06 15:33 49.49576 11.07860 1025 ft 10 kts 279°
2026-05-06 15:33 49.49553 11.07800 1023 ft 7 kts 193°
2026-05-06 15:33 49.49534 11.07794 1026 ft 3 kts 189°
2026-05-06 15:33 49.49521 11.07792 1024 ft 1 kts 188°
2026-05-06 15:34 49.49518 11.07791 1025 ft 1 kts 188°
2026-05-06 15:34 49.49516 11.07790 1025 ft 0 kts 188°
2026-05-06 15:34 49.49515 11.07790 1026 ft 0 kts 188°